Zurück zum Katalog

STARLINK-34366

AktivKommunikationVLEO
NORAD 64281·PAYLOAD·🇺🇸 United States

Gestartet Jun 4, 2025 von Vandenberg Space Force Base

Loading…

Nächste Überflüge (nächste 24 Stunden)

TLE

AktuellSource: CelesTrak SupGP

Epoche: Sep 15, 2026, 02:52 UTC

1 64281C 25120AB  26258.11993056  .00043332  00000+0  12803-2 0  2586
2 64281  53.1586 314.7568 0001232  87.6990  58.2738 15.34369284    11

Verfolge STARLINK-34366 in Echtzeit mit AllMySat

Download on the App Store